TimeEDT,TemperatureF,Dew PointF,Humidity,Sea Level PressureIn,VisibilityMPH,Wind Direction,Wind SpeedMPH,Gust SpeedMPH,PrecipitationIn,Events,Conditions,WindDirDegrees,DateUTC
12:53 AM,73.0,62.1,68,29.96,10.0,South,5.8,-,N/A,,Clear,180,2013-05-30 04:53:00
1:53 AM,72.0,60.1,66,29.96,10.0,SSE,5.8,-,N/A,,Scattered Clouds,160,2013-05-30 05:53:00
2:53 AM,72.0,60.1,66,29.96,10.0,South,6.9,-,N/A,,Clear,170,2013-05-30 06:53:00
3:53 AM,70.0,61.0,73,29.95,10.0,SSE,5.8,-,N/A,,Clear,160,2013-05-30 07:53:00
4:53 AM,71.1,62.1,73,29.94,10.0,South,5.8,-,N/A,,Clear,170,2013-05-30 08:53:00
5:53 AM,70.0,62.1,76,29.96,10.0,SSE,5.8,-,N/A,,Clear,160,2013-05-30 09:53:00
6:53 AM,72.0,63.0,73,29.96,10.0,South,6.9,-,N/A,,Scattered Clouds,180,2013-05-30 10:53:00
7:53 AM,73.9,64.0,71,29.96,10.0,SSE,8.1,17.3,N/A,,Partly Cloudy,160,2013-05-30 11:53:00
8:53 AM,77.0,64.9,66,29.96,10.0,South,12.7,18.4,N/A,,Clear,180,2013-05-30 12:53:00
9:53 AM,77.0,66.0,69,29.96,10.0,South,12.7,19.6,N/A,,Mostly Cloudy,180,2013-05-30 13:53:00
10:53 AM,78.1,66.9,68,29.96,10.0,South,10.4,19.6,N/A,,Mostly Cloudy,180,2013-05-30 14:53:00
11:53 AM,80.1,68.0,67,29.95,10.0,Variable,6.9,17.3,N/A,,Mostly Cloudy,0,2013-05-30 15:53:00
12:53 PM,82.9,68.0,60,29.94,10.0,South,17.3,24.2,N/A,,Mostly Cloudy,180,2013-05-30 16:53:00
1:41 PM,82.4,66.2,58,29.96,10.0,South,15.0,21.9,N/A,Thunderstorm,Scattered Clouds,170,2013-05-30 17:41:00
1:53 PM,82.0,66.0,58,29.94,10.0,South,13.8,25.3,N/A,,Mostly Cloudy,190,2013-05-30 17:53:00
2:53 PM,82.9,66.0,56,29.93,10.0,SSW,15.0,24.2,N/A,,Mostly Cloudy,200,2013-05-30 18:53:00
3:53 PM,84.9,66.9,55,29.91,10.0,South,8.1,23.0,N/A,,Mostly Cloudy,190,2013-05-30 19:53:00
4:33 PM,84.2,64.4,51,29.91,10.0,South,17.3,26.5,N/A,Thunderstorm,Mostly Cloudy,180,2013-05-30 20:33:00
4:53 PM,86.0,66.9,53,29.89,10.0,SSW,15.0,23.0,N/A,Thunderstorm,Partly Cloudy,200,2013-05-30 20:53:00
5:23 PM,84.2,66.2,55,29.90,10.0,SSW,17.3,24.2,N/A,,Scattered Clouds,210,2013-05-30 21:23:00
5:53 PM,84.0,66.0,55,29.87,10.0,SSE,10.4,21.9,N/A,,Scattered Clouds,160,2013-05-30 21:53:00
6:26 PM,84.2,66.2,55,29.87,10.0,South,9.2,24.2,N/A,Thunderstorm,Clear,170,2013-05-30 22:26:00
6:53 PM,79.0,64.9,62,29.88,10.0,South,9.2,-,N/A,Thunderstorm,Thunderstorm,180,2013-05-30 22:53:00
7:53 PM,73.9,69.1,85,29.88,10.0,South,4.6,-,0.04,Thunderstorm,Mostly Cloudy,170,2013-05-30 23:53:00
8:15 PM,73.4,69.8,88,29.89,10.0,Calm,Calm,-,N/A,,Partly Cloudy,0,2013-05-31 00:15:00
8:53 PM,77.0,69.1,76,29.87,10.0,SSE,5.8,-,N/A,,Clear,160,2013-05-31 00:53:00
9:53 PM,77.0,66.0,69,29.89,10.0,South,6.9,-,N/A,,Clear,170,2013-05-31 01:53:00
10:53 PM,77.0,66.0,69,29.90,10.0,SSE,9.2,-,N/A,,Partly Cloudy,150,2013-05-31 02:53:00
11:53 PM,77.0,64.9,66,29.91,10.0,South,8.1,19.6,N/A,,Clear,180,2013-05-31 03:53:00